SL-14 DEB, 45297

Orbit data source: Space-Track

SL-14 DEB, 45297 is space debris in LEO originally from a launch on Thu, 15 Aug 1991 UTC launched from the Plesetsk Missile And Space Complex (PKMTR). Debris objects in space refer to the collection of defunct objects orbiting the Earth. Examples of debris include non-operational satellites, rocket bodies, and fragments generated from explosions, collisions, or faulty payload assembly.

Loading next visibility...
Identifier
45297, 1991-056AK
Orbit
LEO
Country
Flag of CISCIS
Related business
Manufacturer
Unknown
Mission
Spacecraft
Bus & Motor
Unknown
Mass
Unknown
Launch date (UTC)
1991-08-15 (35 years ago)
Launch vehicle
Unknown
Launch site
Plesetsk Missile And Space Complex (PKMTR)
Object type
Payload
Rocket body
Debris
Shape & HBR
Unknown shape, 0.1 m
Radar Cross Section
Small (<0.1 m²)

Expand to show TLE details & history
Last TLE update: 14 hours ago

TLE from 14 hours ago
0 SL-14 DEB
1 45297U 91056AK  26126.29998911 -.00000607  00000-0 -14427-2 0  9998
2 45297  82.5974 203.2422 0139978 134.5151 226.7513 13.21151387297204
Epoch: 2026-05-06T07:11Z
TLE epoch observation values (Epoch: 2026-05-06T07:11:59.059Z)
Latitude
-0.00005°
Longitude
-128.91635°
Altitude
1,256.421 km
Speed
7.192 km/s
True Right ascension
13h 32m 58s
True Declination
0° 00' 00"
Sunlit
Object was in full shadow at epoch
Visualization orbit readout
Latitude
Unknown
Longitude
Unknown
Altitude
Unknown
Speed
Unknown
Apparent Right ascension
Unknown
Apparent Declination
Unknown
Sunlit
N/A
Visualization observer readout
Local Sidereal Time
04:51:33
Azimuth
Unknown
Elevation
Unknown
Doppler factor
Unknown
Orbital elements
Apogee altitude
1,283.325 km
Perigee altitude
1,071.798 km
Semi-major axis
7,555.699 km
Eccentricity
0.014
Inclination
82.5974°
RAAN
203.2422°
Arg. of periapsis
134.5151°
True anomaly
225.59687°
Mean anomaly
226.7513°
Eccentric anomaly
226.1727°
Mean motion
3.30469 °/min
Orbital period
108.94 mins
BSTAR
-0.0014427
Loading maneuver chart data...
Computing Atmospheric mass density...
Loading historical data...
Loading historical data...
Loading historical data...
Loading historical data...
Loading historical data...
Loading historical data...
Loading historical data...

Documentation

Showing up to 5 results
|